owner,sensor,date,latitude,longitude,vertical_datum,direction_of_sea_water_velocity,sea_water_speed,upward_sea_water_velocity,qcFlag 
TABS,ioos:station:wmo:42048:1,2003-03-01T00:00:00Z,27.9396,-96.8429,2.0,234.9977784,33.31570501,-99999.0,'11111222,11111222,99999999' 
TABS,ioos:station:wmo:42048:1,2003-03-01T00:30:00Z,27.9396,-96.8429,2.0,241.2122003,33.32906539,-99999.0,'11111222,11111222,99999999' 
TABS,ioos:station:wmo:42048:1,2003-03-01T01:00:00Z,27.9396,-96.8429,2.0,236.1922215,32.49440567,-99999.0,'11111222,11111222,99999999' 
TABS,ioos:station:wmo:42048:1,2003-03-01T01:30:00Z,27.9396,-96.8429,2.0,234.5803025,31.52410189,-99999.0,'11111222,11111222,99999999' 
TABS,ioos:station:wmo:42048:1,2003-03-01T02:00:00Z,27.9396,-96.8429,2.0,233.577523,31.47896123,-99999.0,'11111222,11111222,99999999' 
TABS,ioos:station:wmo:42048:1,2003-03-01T02:30:00Z,27.9396,-96.8429,2.0,235.3596978,34.79835197,-99999.0,'11111222,11111222,99999999' 
TABS,ioos:station:wmo:42048:1,2003-03-01T03:00:00Z,27.9396,-96.8429,2.0,241.4085517,35.41909796,-99999.0,'11111222,11111222,99999999' 
TABS,ioos:station:wmo:42048:1,2003-03-01T03:30:00Z,27.9396,-96.8429,2.0,237.7197946,36.28838382,-99999.0,'11111222,11111222,99999999' 
TABS,ioos:station:wmo:42048:1,2003-03-01T04:00:00Z,27.9396,-96.8429,2.0,239.1075112,37.04543832,-99999.0,'11111222,11111222,99999999' 
TABS,ioos:station:wmo:42048:1,2003-03-01T04:30:00Z,27.9396,-96.8429,2.0,237.7138362,35.08423008,-99999.0,'11111222,11111222,99999999' 
TABS,ioos:station:wmo:42048:1,2003-03-01T05:00:00Z,27.9396,-96.8429,2.0,236.425166,37.12338616,-99999.0,'11111222,11111222,99999999' 
TABS,ioos:station:wmo:42048:1,2003-03-01T05:30:00Z,27.9396,-96.8429,2.0,224.4763372,32.51412616,-99999.0,'11111222,11111222,99999999' 
TABS,ioos:station:wmo:42048:1,2003-03-01T06:00:00Z,27.9396,-96.8429,2.0,228.9512887,32.52645846,-99999.0,'11111222,11111222,99999999' 
TABS,ioos:station:wmo:42048:1,2003-03-01T06:30:00Z,27.9396,-96.8429,2.0,230.0728937,35.10394992,-99999.0,'11111222,11111222,99999999' 
TABS,ioos:station:wmo:42048:1,2003-03-01T07:00:00Z,27.9396,-96.8429,2.0,227.6912439,33.27780191,-99999.0,'11111222,11111222,99999999' 
TABS,ioos:station:wmo:42048:1,2003-03-01T07:30:00Z,27.9396,-96.8429,2.0,229.3588726,34.60692416,-99999.0,'11111222,11111222,99999999' 
TABS,ioos:station:wmo:42048:1,2003-03-01T08:00:00Z,27.9396,-96.8429,2.0,230.1802083,36.96296795,-99999.0,'11111222,11111222,99999999' 
TABS,ioos:station:wmo:42048:1,2003-03-01T08:30:00Z,27.9396,-96.8429,2.0,215.7757836,32.6879565,-99999.0,'11111222,11111222,99999999' 
TABS,ioos:station:wmo:42048:1,2003-03-01T09:00:00Z,27.9396,-96.8429,2.0,215.7961289,31.91960213,-99999.0,'11111222,11111222,99999999' 
TABS,ioos:station:wmo:42048:1,2003-03-01T09:30:00Z,27.9396,-96.8429,2.0,217.7145103,31.05937701,-99999.0,'11111222,11111222,99999999' 
TABS,ioos:station:wmo:42048:1,2003-03-01T10:00:00Z,27.9396,-96.8429,2.0,217.3538966,27.21097205,-99999.0,'11111222,11111222,99999999' 
TABS,ioos:station:wmo:42048:1,2003-03-01T10:30:00Z,27.9396,-96.8429,2.0,225.1198466,37.08783224,-99999.0,'11111222,11111222,99999999' 
TABS,ioos:station:wmo:42048:1,2003-03-01T11:00:00Z,27.9396,-96.8429,2.0,221.4991213,39.02733017,-99999.0,'11111222,11111222,99999999' 
TABS,ioos:station:wmo:42048:1,2003-03-03T00:30:00Z,27.9396,-96.8429,2.0,229.0826886,33.26896001,-99999.0,'11111222,11111222,99999999' 
TABS,ioos:station:wmo:42048:1,2003-03-03T01:00:00Z,27.9396,-96.8429,2.0,232.7168009,31.91082888,-99999.0,'11111222,11111222,99999999' 
TABS,ioos:station:wmo:42048:1,2003-03-03T01:30:00Z,27.9396,-96.8429,2.0,229.6926303,31.89136717,-99999.0,'11111222,11111222,99999999' 
TABS,ioos:station:wmo:42048:1,2003-03-03T02:00:00Z,27.9396,-96.8429,2.0,234.3277389,29.27239826,-99999.0,'11111222,11111222,99999999' 
TABS,ioos:station:wmo:42048:1,2003-03-03T02:30:00Z,27.9396,-96.8429,2.0,225.6127764,26.43316477,-99999.0,'11111222,11111222,99999999' 
TABS,ioos:station:wmo:42048:1,2003-03-03T03:00:00Z,27.9396,-96.8429,2.0,232.9737581,28.64610619,-99999.0,'11111222,11111222,99999999' 
TABS,ioos:station:wmo:42048:1,2003-03-03T03:30:00Z,27.9396,-96.8429,2.0,231.4307639,26.57768425,-99999.0,'11111222,11111222,99999999' 
TABS,ioos:station:wmo:42048:1,2003-03-03T04:00:00Z,27.9396,-96.8429,2.0,227.3699952,34.53636055,-99999.0,'11111222,11111222,99999999' 
TABS,ioos:station:wmo:42048:1,2003-03-03T04:30:00Z,27.9396,-96.8429,2.0,224.1268265,30.63542068,-99999.0,'11111222,11111222,99999999' 
TABS,ioos:station:wmo:42048:1,2003-03-03T05:00:00Z,27.9396,-96.8429,2.0,231.3817727,34.15989608,-99999.0,'11111222,11111222,99999999' 
TABS,ioos:station:wmo:42048:1,2003-03-03T05:30:00Z,27.9396,-96.8429,2.0,231.8573295,30.26146229,-99999.0,'11111222,11111222,99999999' 
TABS,ioos:station:wmo:42048:1,2003-03-03T06:00:00Z,27.9396,-96.8429,2.0,227.6665495,29.17854349,-99999.0,'11111222,11111222,99999999' 
TABS,ioos:station:wmo:42048:1,2003-03-03T06:30:00Z,27.9396,-96.8429,2.0,230.0708797,30.95810879,-99999.0,'11111222,11111222,99999999' 
TABS,ioos:station:wmo:42048:1,2003-03-03T07:00:00Z,27.9396,-96.8429,2.0,224.9598496,30.51166498,-99999.0,'11111222,11111222,99999999' 
TABS,ioos:station:wmo:42048:1,2003-03-03T07:30:00Z,27.9396,-96.8429,2.0,222.7589472,28.57482108,-99999.0,'11111222,11111222,99999999' 
TABS,ioos:station:wmo:42048:1,2003-03-03T08:00:00Z,27.9396,-96.8429,2.0,222.2968473,34.48860971,-99999.0,'11111222,11111222,99999999' 
TABS,ioos:station:wmo:42048:1,2003-03-03T08:30:00Z,27.9396,-96.8429,2.0,218.0414175,33.15293351,-99999.0,'11111222,11111222,99999999' 
TABS,ioos:station:wmo:42048:1,2003-03-03T09:00:00Z,27.9396,-96.8429,2.0,215.9544129,31.30399336,-99999.0,'11111222,11111222,99999999' 
TABS,ioos:station:wmo:42048:1,2003-03-03T09:30:00Z,27.9396,-96.8429,2.0,221.2132008,39.08225301,-99999.0,'11111222,11111222,99999999' 
TABS,ioos:station:wmo:42048:1,2003-03-03T10:00:00Z,27.9396,-96.8429,2.0,217.7666729,37.68461888,-99999.0,'11111222,11111222,99999999' 
TABS,ioos:station:wmo:42048:1,2003-03-03T10:30:00Z,27.9396,-96.8429,2.0,220.4124942,35.27742196,-99999.0,'11111222,11111222,99999999' 
TABS,ioos:station:wmo:42048:1,2003-03-03T11:00:00Z,27.9396,-96.8429,2.0,221.3375018,37.97139055,-99999.0,'11111222,11111222,99999999' 
TABS,ioos:station:wmo:42048:1,2003-03-03T11:30:00Z,27.9396,-96.8429,2.0,215.6697668,35.72183226,-99999.0,'11111222,11111222,99999999' 
TABS,ioos:station:wmo:42048:1,2003-03-03T12:00:00Z,27.9396,-96.8429,2.0,221.7625851,35.31268894,-99999.0,'11111222,11111222,99999999' 
TABS,ioos:station:wmo:42048:1,2003-03-03T12:30:00Z,27.9396,-96.8429,2.0,224.8117717,45.2762907,-99999.0,'11111222,11111222,99999999' 
TABS,ioos:station:wmo:42048:1,2003-03-03T13:00:00Z,27.9396,-96.8429,2.0,221.377728,42.64593885,-99999.0,'11111222,11111222,99999999' 
TABS,ioos:station:wmo:42048:1,2003-03-03T13:30:00Z,27.9396,-96.8429,2.0,226.9373348,41.19838468,-99999.0,'11111222,11111222,99999999' 
TABS,ioos:station:wmo:42048:1,2003-03-03T14:00:00Z,27.9396,-96.8429,2.0,222.0236331,42.90146035,-99999.0,'11111222,11111222,99999999' 
TABS,ioos:station:wmo:42048:1,2003-03-03T14:30:00Z,27.9396,-96.8429,2.0,223.2123024,45.11414967,-99999.0,'11111222,11111222,99999999' 
TABS,ioos:station:wmo:42048:1,2003-03-03T15:00:00Z,27.9396,-96.8429,2.0,224.5745118,39.06872534,-99999.0,'11111222,11111222,99999999' 
TABS,ioos:station:wmo:42048:1,2003-03-03T15:30:00Z,27.9396,-96.8429,2.0,223.8900796,39.43566913,-99999.0,'11111222,11111222,99999999' 
TABS,ioos:station:wmo:42048:1,2003-03-03T16:00:00Z,27.9396,-96.8429,2.0,222.8429657,42.08852575,-99999.0,'11111222,11111222,99999999' 
TABS,ioos:station:wmo:42048:1,2003-03-03T16:30:00Z,27.9396,-96.8429,2.0,224.272721,41.24178706,-99999.0,'11111222,11111222,99999999' 
TABS,ioos:station:wmo:42048:1,2003-03-03T17:00:00Z,27.9396,-96.8429,2.0,226.7655691,37.40249858,-99999.0,'11111222,11111222,99999999' 
TABS,ioos:station:wmo:42048:1,2003-03-03T17:30:00Z,27.9396,-96.8429,2.0,219.4105252,29.54905244,-99999.0,'11111222,11111222,99999999' 
TABS,ioos:station:wmo:42048:1,2003-03-03T18:00:00Z,27.9396,-96.8429,2.0,233.5894573,28.16890662,-99999.0,'11111222,11111222,99999999' 
TABS,ioos:station:wmo:42048:1,2003-03-03T18:30:00Z,27.9396,-96.8429,2.0,240.755135,50.98890271,-99999.0,'11111222,11111222,99999999' 
TABS,ioos:station:wmo:42048:1,2003-03-03T19:00:00Z,27.9396,-96.8429,2.0,241.6644043,49.51228534,-99999.0,'11111222,11111222,99999999' 
TABS,ioos:station:wmo:42048:1,2003-03-03T19:30:00Z,27.9396,-96.8429,2.0,235.8568324,50.1908408,-99999.0,'11111222,11111222,99999999' 
TABS,ioos:station:wmo:42048:1,2003-03-03T20:00:00Z,27.9396,-96.8429,2.0,232.3112524,53.06141442,-99999.0,'11111222,11111222,99999999' 
TABS,ioos:station:wmo:42048:1,2003-03-03T20:30:00Z,27.9396,-96.8429,2.0,227.1746256,50.67949684,-99999.0,'11111222,11111222,99999999' 
TABS,ioos:station:wmo:42048:1,2003-03-03T21:00:00Z,27.9396,-96.8429,2.0,228.4781413,52.67750943,-99999.0,'11111222,11111222,99999999' 
TABS,ioos:station:wmo:42048:1,2003-03-03T21:30:00Z,27.9396,-96.8429,2.0,228.2973623,53.96382214,-99999.0,'11111222,11111222,99999999' 
TABS,ioos:station:wmo:42048:1,2003-03-03T22:00:00Z,27.9396,-96.8429,2.0,231.4861348,59.3384142,-99999.0,'11111222,11111222,99999999' 
TABS,ioos:station:wmo:42048:1,2003-03-03T22:30:00Z,27.9396,-96.8429,2.0,226.7189426,62.69202501,-99999.0,'11111222,11111222,99999999' 
TABS,ioos:station:wmo:42048:1,2003-03-03T23:00:00Z,27.9396,-96.8429,2.0,234.6654812,60.22363157,-99999.0,'11111222,11111222,99999999' 
TABS,ioos:station:wmo:42048:1,2003-03-03T23:30:00Z,27.9396,-96.8429,2.0,229.7040706,52.24735974,-99999.0,'11111222,11111222,99999999' 
TABS,ioos:station:wmo:42048:1,2003-03-04T00:00:00Z,27.9396,-96.8429,2.0,225.7447496,52.20303631,-99999.0,'11111222,11111222,99999999' 
TABS,ioos:station:wmo:42048:1,2003-03-04T00:30:00Z,27.9396,-96.8429,2.0,216.6316461,59.71451499,-99999.0,'11111222,11111222,99999999' 
TABS,ioos:station:wmo:42048:1,2003-03-04T01:00:00Z,27.9396,-96.8429,2.0,216.5577753,39.68858778,-99999.0,'11111222,11111222,99999999' 
TABS,ioos:station:wmo:42048:1,2003-03-04T01:30:00Z,27.9396,-96.8429,2.0,232.669091,38.30723822,-99999.0,'11111222,11111222,99999999' 
TABS,ioos:station:wmo:42048:1,2003-03-04T02:00:00Z,27.9396,-96.8429,2.0,226.3831934,44.80827714,-99999.0,'11111222,11111222,99999999' 
TABS,ioos:station:wmo:42048:1,2003-03-04T02:30:00Z,27.9396,-96.8429,2.0,229.8894729,32.26959095,-99999.0,'11111222,11111222,99999999' 
TABS,ioos:station:wmo:42048:1,2003-03-04T03:00:00Z,27.9396,-96.8429,2.0,231.1864368,31.49411374,-99999.0,'11111222,11111222,99999999' 
TABS,ioos:station:wmo:42048:1,2003-03-04T03:30:00Z,27.9396,-96.8429,2.0,241.1611193,31.67871367,-99999.0,'11111222,11111222,99999999' 
TABS,ioos:station:wmo:42048:1,2003-03-04T04:00:00Z,27.9396,-96.8429,2.0,239.841078,26.97081571,-99999.0,'11111222,11111222,99999999' 
TABS,ioos:station:wmo:42048:1,2003-03-04T04:30:00Z,27.9396,-96.8429,2.0,226.4113302,45.06344971,-99999.0,'11111222,11111222,99999999' 
TABS,ioos:station:wmo:42048:1,2003-03-04T05:00:00Z,27.9396,-96.8429,2.0,222.4892308,47.13855322,-99999.0,'11111222,11111222,99999999' 
TABS,ioos:station:wmo:42048:1,2003-03-04T05:30:00Z,27.9396,-96.8429,2.0,223.7409448,44.09874942,-99999.0,'11111222,11111222,99999999' 
TABS,ioos:station:wmo:42048:1,2003-03-04T06:00:00Z,27.9396,-96.8429,2.0,221.2432009,51.48191624,-99999.0,'11111222,11111222,99999999' 
TABS,ioos:station:wmo:42048:1,2003-03-04T06:30:00Z,27.9396,-96.8429,2.0,217.1800197,50.20473683,-99999.0,'11111222,11111222,99999999' 
TABS,ioos:station:wmo:42048:1,2003-03-04T07:00:00Z,27.9396,-96.8429,2.0,214.4416016,46.50174728,-99999.0,'11111222,11111222,99999999' 
TABS,ioos:station:wmo:42048:1,2003-03-04T07:30:00Z,27.9396,-96.8429,2.0,216.2154076,58.15579077,-99999.0,'11111222,11111222,99999999' 
TABS,ioos:station:wmo:42048:1,2003-03-04T08:00:00Z,27.9396,-96.8429,2.0,212.4401737,52.90601951,-99999.0,'11111222,11111222,99999999' 
TABS,ioos:station:wmo:42048:1,2003-03-04T08:30:00Z,27.9396,-96.8429,2.0,209.4541464,54.56234049,-99999.0,'11111222,11111222,99999999' 
TABS,ioos:station:wmo:42048:1,2003-03-04T09:00:00Z,27.9396,-96.8429,2.0,206.4925008,49.63180432,-99999.0,'11111222,11111222,99999999' 
TABS,ioos:station:wmo:42048:1,2003-03-04T09:30:00Z,27.9396,-96.8429,2.0,205.2001995,46.57261534,-99999.0,'11111222,11111222,99999999' 
TABS,ioos:station:wmo:42048:1,2003-03-04T10:00:00Z,27.9396,-96.8429,2.0,212.1850309,48.26724148,-99999.0,'11111222,11111222,99999999' 
TABS,ioos:station:wmo:42048:1,2003-03-04T10:30:00Z,27.9396,-96.8429,2.0,210.9263891,45.04411282,-99999.0,'11111222,11111222,99999999' 
TABS,ioos:station:wmo:42048:1,2003-03-04T11:00:00Z,27.9396,-96.8429,2.0,224.4548726,63.95362851,-99999.0,'11111222,11111222,99999999' 
TABS,ioos:station:wmo:42048:1,2003-03-04T11:30:00Z,27.9396,-96.8429,2.0,225.2373115,59.67325448,-99999.0,'11111222,11111222,99999999' 
TABS,ioos:station:wmo:42048:1,2003-03-04T12:00:00Z,27.9396,-96.8429,2.0,223.215677,57.91890624,-99999.0,'11111222,11111222,99999999' 
TABS,ioos:station:wmo:42048:1,2003-03-04T12:30:00Z,27.9396,-96.8429,2.0,225.8880027,73.88739676,-99999.0,'11111222,11111222,99999999' 
TABS,ioos:station:wmo:42048:1,2003-03-04T13:00:00Z,27.9396,-96.8429,2.0,228.6677489,72.72642573,-99999.0,'11111222,11111222,99999999' 
TABS,ioos:station:wmo:42048:1,2003-03-04T13:30:00Z,27.9396,-96.8429,2.0,228.1231803,75.00818222,-99999.0,'11111222,11111222,99999999' 
TABS,ioos:station:wmo:42048:1,2003-03-04T14:00:00Z,27.9396,-96.8429,2.0,230.2780492,73.40490242,-99999.0,'11111222,11111222,99999999' 
TABS,ioos:station:wmo:42048:1,2003-03-04T14:30:00Z,27.9396,-96.8429,2.0,228.0677572,77.02240518,-99999.0,'11111222,11111222,99999999' 
TABS,ioos:station:wmo:42048:1,2003-03-04T15:00:00Z,27.9396,-96.8429,2.0,226.9693255,79.2074018,-99999.0,'11111222,11111222,99999999' 
TABS,ioos:station:wmo:42048:1,2003-03-04T15:30:00Z,27.9396,-96.8429,2.0,227.0250125,79.23131325,-99999.0,'11111222,11111222,99999999' 
TABS,ioos:station:wmo:42048:1,2003-03-04T16:00:00Z,27.9396,-96.8429,2.0,224.6783405,71.86439243,-99999.0,'11111222,11111222,99999999' 
TABS,ioos:station:wmo:42048:1,2003-03-04T16:30:00Z,27.9396,-96.8429,2.0,223.2348306,68.19036955,-99999.0,'11111222,11111222,99999999' 
TABS,ioos:station:wmo:42048:1,2003-03-04T17:00:00Z,27.9396,-96.8429,2.0,224.5419478,62.84258508,-99999.0,'11111222,11111222,99999999' 
TABS,ioos:station:wmo:42048:1,2003-03-04T17:30:00Z,27.9396,-96.8429,2.0,221.1679313,60.94742652,-99999.0,'11111222,11111222,99999999' 
TABS,ioos:station:wmo:42048:1,2003-03-04T18:00:00Z,27.9396,-96.8429,2.0,224.2630269,58.29870153,-99999.0,'11111222,11111222,99999999' 
TABS,ioos:station:wmo:42048:1,2003-03-04T18:30:00Z,27.9396,-96.8429,2.0,226.5168794,62.22599859,-99999.0,'11111222,11111222,99999999' 
TABS,ioos:station:wmo:42048:1,2003-03-04T19:00:00Z,27.9396,-96.8429,2.0,222.6404697,56.17067651,-99999.0,'11111222,11111222,99999999' 
TABS,ioos:station:wmo:42048:1,2003-03-04T19:30:00Z,27.9396,-96.8429,2.0,223.0314339,54.35201008,-99999.0,'11111222,11111222,99999999' 
TABS,ioos:station:wmo:42048:1,2003-03-04T20:00:00Z,27.9396,-96.8429,2.0,220.5678608,48.77356764,-99999.0,'11111222,11111222,99999999' 
TABS,ioos:station:wmo:42048:1,2003-03-04T20:30:00Z,27.9396,-96.8429,2.0,227.6176682,44.12001473,-99999.0,'11111222,11111222,99999999' 
TABS,ioos:station:wmo:42048:1,2003-03-04T21:00:00Z,27.9396,-96.8429,2.0,233.5941367,55.02980738,-99999.0,'11111222,11111222,99999999' 
TABS,ioos:station:wmo:42048:1,2003-03-04T21:30:00Z,27.9396,-96.8429,2.0,227.6543071,49.46570529,-99999.0,'11111222,11111222,99999999' 
TABS,ioos:station:wmo:42048:1,2003-03-04T22:00:00Z,27.9396,-96.8429,2.0,228.2322169,57.55814886,-99999.0,'11111222,11111222,99999999' 
TABS,ioos:station:wmo:42048:1,2003-03-04T22:30:00Z,27.9396,-96.8429,2.0,228.3597019,51.75726519,-99999.0,'11111222,11111222,99999999' 
TABS,ioos:station:wmo:42048:1,2003-03-04T23:00:00Z,27.9396,-96.8429,2.0,229.0870479,49.30468233,-99999.0,'11111222,11111222,99999999' 
TABS,ioos:station:wmo:42048:1,2003-03-04T23:30:00Z,27.9396,-96.8429,2.0,224.1057822,54.84280536,-99999.0,'11111222,11111222,99999999' 
TABS,ioos:station:wmo:42048:1,2003-03-05T00:00:00Z,27.9396,-96.8429,2.0,216.2303214,46.42688984,-99999.0,'11111222,11111222,99999999' 
TABS,ioos:station:wmo:42048:1,2003-03-05T00:30:00Z,27.9396,-96.8429,2.0,212.6722504,34.04732001,-99999.0,'11111222,11111222,99999999' 
TABS,ioos:station:wmo:42048:1,2003-03-05T01:00:00Z,27.9396,-96.8429,2.0,234.4248156,28.67132365,-99999.0,'11111222,11111222,99999999' 
TABS,ioos:station:wmo:42048:1,2003-03-05T01:30:00Z,27.9396,-96.8429,2.0,235.4747616,27.03063632,-99999.0,'11111222,11111222,99999999' 
TABS,ioos:station:wmo:42048:1,2003-03-05T02:00:00Z,27.9396,-96.8429,2.0,238.1659193,29.36737305,-99999.0,'11111222,11111222,99999999' 
TABS,ioos:station:wmo:42048:1,2003-03-05T02:30:00Z,27.9396,-96.8429,2.0,230.8740777,29.7770734,-99999.0,'11111222,11111222,99999999' 
TABS,ioos:station:wmo:42048:1,2003-03-05T03:00:00Z,27.9396,-96.8429,2.0,236.0417392,25.51094079,-99999.0,'11111222,11111222,99999999' 
TABS,ioos:station:wmo:42048:1,2003-03-05T03:30:00Z,27.9396,-96.8429,2.0,239.2879606,25.72846672,-99999.0,'11111222,11111222,99999999' 
TABS,ioos:station:wmo:42048:1,2003-03-05T04:00:00Z,27.9396,-96.8429,2.0,219.3393666,25.66584111,-99999.0,'11111222,11111222,99999999' 
TABS,ioos:station:wmo:42048:1,2003-03-05T04:30:00Z,27.9396,-96.8429,2.0,231.1497697,67.78447094,-99999.0,'11111222,11111222,99999999' 
TABS,ioos:station:wmo:42048:1,2003-03-05T05:00:00Z,27.9396,-96.8429,2.0,226.3910294,64.35862102,-99999.0,'11111222,11111222,99999999' 
TABS,ioos:station:wmo:42048:1,2003-03-05T05:30:00Z,27.9396,-96.8429,2.0,226.0706951,40.0999601,-99999.0,'11111222,11111222,99999999' 
TABS,ioos:station:wmo:42048:1,2003-03-05T06:00:00Z,27.9396,-96.8429,2.0,251.833665,15.49216899,-99999.0,'11111222,11111222,99999999' 
TABS,ioos:station:wmo:42048:1,2003-03-05T06:30:00Z,27.9396,-96.8429,2.0,242.9784241,14.04295197,-99999.0,'11111222,11111222,99999999' 
TABS,ioos:station:wmo:42048:1,2003-03-05T07:00:00Z,27.9396,-96.8429,2.0,239.0661861,12.97558477,-99999.0,'11111222,11111222,99999999' 
TABS,ioos:station:wmo:42048:1,2003-03-05T07:30:00Z,27.9396,-96.8429,2.0,240.2617875,70.86228475,-99999.0,'11111222,11111222,99999999' 
TABS,ioos:station:wmo:42048:1,2003-03-05T08:00:00Z,27.9396,-96.8429,2.0,236.1551161,77.1535307,-99999.0,'11111222,11111222,99999999' 
TABS,ioos:station:wmo:42048:1,2003-03-05T08:30:00Z,27.9396,-96.8429,2.0,233.2875268,79.17430012,-99999.0,'11111222,11111222,99999999' 
TABS,ioos:station:wmo:42048:1,2003-03-05T09:00:00Z,27.9396,-96.8429,2.0,230.9875188,75.1725382,-99999.0,'11111222,11111222,99999999' 
TABS,ioos:station:wmo:42048:1,2003-03-05T09:30:00Z,27.9396,-96.8429,2.0,229.6652428,70.32853262,-99999.0,'11111222,11111222,99999999' 
TABS,ioos:station:wmo:42048:1,2003-03-05T10:00:00Z,27.9396,-96.8429,2.0,230.3268881,71.81991994,-99999.0,'11111222,11111222,99999999' 
TABS,ioos:station:wmo:42048:1,2003-03-05T10:30:00Z,27.9396,-96.8429,2.0,227.7662117,70.90645669,-99999.0,'11111222,11111222,99999999' 
TABS,ioos:station:wmo:42048:1,2003-03-05T11:00:00Z,27.9396,-96.8429,2.0,225.7466763,64.54312124,-99999.0,'11111222,11111222,99999999' 
TABS,ioos:station:wmo:42048:1,2003-03-05T11:30:00Z,27.9396,-96.8429,2.0,222.9139665,65.28092064,-99999.0,'11111222,11111222,99999999' 
TABS,ioos:station:wmo:42048:1,2003-03-05T12:00:00Z,27.9396,-96.8429,2.0,226.7572693,66.16682628,-99999.0,'11111222,11111222,99999999' 
TABS,ioos:station:wmo:42048:1,2003-03-05T12:30:00Z,27.9396,-96.8429,2.0,225.9067593,66.99969254,-99999.0,'11111222,11111222,99999999' 
TABS,ioos:station:wmo:42048:1,2003-03-05T13:00:00Z,27.9396,-96.8429,2.0,226.0179063,69.23668681,-99999.0,'11111222,11111222,99999999' 
TABS,ioos:station:wmo:42048:1,2003-03-05T13:30:00Z,27.9396,-96.8429,2.0,223.8279047,68.8088083,-99999.0,'11111222,11111222,99999999' 
TABS,ioos:station:wmo:42048:1,2003-03-05T14:00:00Z,27.9396,-96.8429,2.0,222.7672021,64.07715428,-99999.0,'11111222,11111222,99999999' 
TABS,ioos:station:wmo:42048:1,2003-03-05T14:30:00Z,27.9396,-96.8429,2.0,224.6213984,65.33101943,-99999.0,'11111222,11111222,99999999' 
TABS,ioos:station:wmo:42048:1,2003-03-05T15:00:00Z,27.9396,-96.8429,2.0,227.1223953,55.55307462,-99999.0,'11111222,11111222,99999999' 
TABS,ioos:station:wmo:42048:1,2003-03-05T15:30:00Z,27.9396,-96.8429,2.0,232.3640823,49.53842347,-99999.0,'11111222,11111222,99999999' 
TABS,ioos:station:wmo:42048:1,2003-03-05T16:00:00Z,27.9396,-96.8429,2.0,226.1284309,46.6639604,-99999.0,'11111222,11111222,99999999' 
TABS,ioos:station:wmo:42048:1,2003-03-05T16:30:00Z,27.9396,-96.8429,2.0,230.6762269,43.82217361,-99999.0,'11111222,11111222,99999999' 
TABS,ioos:station:wmo:42048:1,2003-03-05T17:00:00Z,27.9396,-96.8429,2.0,230.213305,42.02042599,-99999.0,'11111222,11111222,99999999' 
TABS,ioos:station:wmo:42048:1,2003-03-05T17:30:00Z,27.9396,-96.8429,2.0,229.701098,44.3433738,-99999.0,'11111222,11111222,99999999' 
TABS,ioos:station:wmo:42048:1,2003-03-05T18:00:00Z,27.9396,-96.8429,2.0,231.5397367,40.29151399,-99999.0,'11111222,11111222,99999999' 
TABS,ioos:station:wmo:42048:1,2003-03-05T18:30:00Z,27.9396,-96.8429,2.0,237.5575934,39.22106067,-99999.0,'11111222,11111222,99999999' 
TABS,ioos:station:wmo:42048:1,2003-03-05T19:00:00Z,27.9396,-96.8429,2.0,243.0250765,34.41396519,-99999.0,'11111222,11111222,99999999' 
TABS,ioos:station:wmo:42048:1,2003-03-05T19:30:00Z,27.9396,-96.8429,2.0,244.3168253,33.11114767,-99999.0,'11111222,11111222,99999999' 
TABS,ioos:station:wmo:42048:1,2003-03-05T20:00:00Z,27.9396,-96.8429,2.0,248.4844172,30.48412702,-99999.0,'11111222,11111222,99999999' 
TABS,ioos:station:wmo:42048:1,2003-03-05T20:30:00Z,27.9396,-96.8429,2.0,244.9960006,28.72177745,-99999.0,'11111222,11111222,99999999' 
TABS,ioos:station:wmo:42048:1,2003-03-05T21:00:00Z,27.9396,-96.8429,2.0,250.0020186,30.38181364,-99999.0,'11111222,11111222,99999999' 
TABS,ioos:station:wmo:42048:1,2003-03-05T21:30:00Z,27.9396,-96.8429,2.0,250.2537064,30.13174406,-99999.0,'11111222,11111222,99999999' 
TABS,ioos:station:wmo:42048:1,2003-03-05T22:00:00Z,27.9396,-96.8429,2.0,249.7178914,28.35822456,-99999.0,'11111222,11111222,99999999' 
TABS,ioos:station:wmo:42048:1,2003-03-05T22:30:00Z,27.9396,-96.8429,2.0,247.2691428,28.2869758,-99999.0,'11111222,11111222,99999999' 
TABS,ioos:station:wmo:42048:1,2003-03-05T23:00:00Z,27.9396,-96.8429,2.0,250.1684636,27.38396794,-99999.0,'11111222,11111222,99999999' 
TABS,ioos:station:wmo:42048:1,2003-03-05T23:30:00Z,27.9396,-96.8429,2.0,241.9646154,27.89294714,-99999.0,'11111222,11111222,99999999' 
TABS,ioos:station:wmo:42048:1,2003-03-06T00:00:00Z,27.9396,-96.8429,2.0,235.1563952,33.76311893,-99999.0,'11111222,11111222,99999999' 
TABS,ioos:station:wmo:42048:1,2003-03-06T00:30:00Z,27.9396,-96.8429,2.0,233.8012982,34.98240272,-99999.0,'11111222,11111222,99999999' 
TABS,ioos:station:wmo:42048:1,2003-03-06T01:00:00Z,27.9396,-96.8429,2.0,230.6804369,33.78886947,-99999.0,'11111222,11111222,99999999' 
TABS,ioos:station:wmo:42048:1,2003-03-06T01:30:00Z,27.9396,-96.8429,2.0,227.788046,34.15834451,-99999.0,'11111222,11111222,99999999' 
TABS,ioos:station:wmo:42048:1,2003-03-06T02:00:00Z,27.9396,-96.8429,2.0,222.2744872,34.800727,-99999.0,'11111222,11111222,99999999' 
TABS,ioos:station:wmo:42048:1,2003-03-06T02:30:00Z,27.9396,-96.8429,2.0,227.9404742,52.64979582,-99999.0,'11111222,11111222,99999999' 
TABS,ioos:station:wmo:42048:1,2003-03-06T03:00:00Z,27.9396,-96.8429,2.0,230.4796521,63.45586577,-99999.0,'11111222,11111222,99999999' 
TABS,ioos:station:wmo:42048:1,2003-03-06T03:30:00Z,27.9396,-96.8429,2.0,229.943956,66.86533706,-99999.0,'11111222,11111222,99999999' 
TABS,ioos:station:wmo:42048:1,2003-03-06T04:00:00Z,27.9396,-96.8429,2.0,231.6483139,66.14210837,-99999.0,'11111222,11111222,99999999' 
TABS,ioos:station:wmo:42048:1,2003-03-06T04:30:00Z,27.9396,-96.8429,2.0,227.2253297,62.81725639,-99999.0,'11111222,11111222,99999999' 